EWG9627 EDDL-LGZA

Flight info

Callsign EWG9627
Flight time 2h 28m
Altitude 33000
Route DODEN7Z DODEN Y853 BOMBI DCT DETEV DCT DINKU M867 XERUM DCT BAVAX DCT RADIZ DCT AIOSA DCT ENOXA DCT KAPPO DCT LUPAL DCT LATAN UM872 ASTUS
Aircraft A321/M-SDE3FGHIRWY/LB1

Departure

Time 2026-05-07 12:00
Airport Düsseldorf Airport (EDDL)

Arrival

Time 2026-05-07 14:29
Airport Zakynthos International Airport Dionysios Solomos (LGZA)
Time Latitude Longitude Altitude Speed Heading
2026-05-07 12:00 51.34552 7.00041 5478 ft 269 kts 97°
2026-05-07 12:00 51.34255 7.03008 6168 ft 271 kts 97°
2026-05-07 12:01 51.33955 7.05999 6820 ft 274 kts 97°
2026-05-07 12:01 51.33552 7.10011 7655 ft 278 kts 98°
2026-05-07 12:01 51.33243 7.13082 8284 ft 281 kts 98°
2026-05-07 12:01 51.32983 7.15175 8703 ft 284 kts 106°
2026-05-07 12:02 51.32222 7.18046 9288 ft 288 kts 121°
2026-05-07 12:02 51.30965 7.20601 9894 ft 291 kts 135°
2026-05-07 12:02 51.29496 7.22897 10281 ft 302 kts 135°
2026-05-07 12:02 51.27948 7.25326 10410 ft 321 kts 135°
2026-05-07 12:03 51.26340 7.27859 10538 ft 338 kts 135°
2026-05-07 12:03 51.24610 7.30591 10780 ft 350 kts 135°
2026-05-07 12:03 51.23187 7.32842 11153 ft 354 kts 135°
2026-05-07 12:03 51.21383 7.35692 11660 ft 358 kts 135°
2026-05-07 12:04 51.19601 7.38500 12184 ft 362 kts 135°
2026-05-07 12:04 51.17801 7.41334 12681 ft 366 kts 135°
2026-05-07 12:04 51.15981 7.44194 13181 ft 369 kts 135°
2026-05-07 12:04 51.14137 7.47068 13685 ft 373 kts 136°
2026-05-07 12:05 51.12264 7.49947 14151 ft 376 kts 136°
2026-05-07 12:05 51.10369 7.52836 14630 ft 378 kts 136°
2026-05-07 12:05 51.08461 7.55734 15092 ft 381 kts 136°
2026-05-07 12:05 51.06538 7.58650 15575 ft 383 kts 136°
2026-05-07 12:06 51.04603 7.61588 16055 ft 385 kts 136°
2026-05-07 12:06 51.02662 7.64538 16524 ft 387 kts 137°
2026-05-07 12:06 51.00710 7.67501 17005 ft 389 kts 136°
2026-05-07 12:06 50.98747 7.70477 17486 ft 391 kts 137°
2026-05-07 12:07 50.96730 7.73394 17952 ft 393 kts 142°
2026-05-07 12:07 50.94471 7.75814 18381 ft 394 kts 149°
2026-05-07 12:07 50.92133 7.78102 18769 ft 396 kts 149°
2026-05-07 12:07 50.89788 7.80401 19146 ft 397 kts 149°
2026-05-07 12:08 50.87430 7.82719 19522 ft 399 kts 148°
2026-05-07 12:08 50.85066 7.85049 19892 ft 401 kts 148°
2026-05-07 12:08 50.82720 7.87360 20260 ft 404 kts 148°
2026-05-07 12:08 50.80328 7.89711 20627 ft 406 kts 148°
2026-05-07 12:09 50.77923 7.92072 20999 ft 408 kts 148°
2026-05-07 12:09 50.75507 7.94444 21336 ft 410 kts 148°
2026-05-07 12:09 50.73079 7.96821 21693 ft 412 kts 148°
2026-05-07 12:09 50.70637 7.99207 22049 ft 414 kts 148°
2026-05-07 12:10 50.68185 8.01597 22401 ft 416 kts 148°
2026-05-07 12:10 50.65712 8.03997 22746 ft 418 kts 149°
2026-05-07 12:10 50.63225 8.06406 23092 ft 420 kts 149°
2026-05-07 12:10 50.60735 8.08843 23430 ft 423 kts 146°
2026-05-07 12:11 50.58407 8.11686 23733 ft 425 kts 140°
2026-05-07 12:11 50.56137 8.14680 24032 ft 427 kts 140°
2026-05-07 12:11 50.53855 8.17683 24328 ft 429 kts 140°
2026-05-07 12:11 50.51564 8.20690 24615 ft 430 kts 140°
2026-05-07 12:12 50.49261 8.23707 24920 ft 432 kts 140°
2026-05-07 12:12 50.46946 8.26732 25198 ft 434 kts 141°
2026-05-07 12:12 50.44624 8.29762 25476 ft 435 kts 141°
2026-05-07 12:12 50.42289 8.32806 25765 ft 437 kts 141°
2026-05-07 12:13 50.39946 8.35854 26049 ft 438 kts 141°
2026-05-07 12:13 50.37598 8.38907 26318 ft 440 kts 141°
2026-05-07 12:13 50.35237 8.41976 26592 ft 442 kts 141°
2026-05-07 12:13 50.32896 8.45014 26871 ft 444 kts 141°
2026-05-07 12:14 50.30512 8.48098 27141 ft 445 kts 141°
2026-05-07 12:14 50.28120 8.51186 27395 ft 447 kts 141°
2026-05-07 12:14 50.25714 8.54287 27663 ft 449 kts 141°
2026-05-07 12:14 50.23300 8.57399 27926 ft 451 kts 141°
2026-05-07 12:15 50.20881 8.60516 28195 ft 452 kts 141°
2026-05-07 12:15 50.18450 8.63644 28453 ft 453 kts 141°
2026-05-07 12:15 50.16010 8.66782 28709 ft 455 kts 141°
2026-05-07 12:15 50.13565 8.69925 28959 ft 456 kts 141°
2026-05-07 12:16 50.11114 8.73070 29185 ft 457 kts 141°
2026-05-07 12:16 50.08666 8.76240 29405 ft 459 kts 138°
2026-05-07 12:16 50.06441 8.79814 29596 ft 460 kts 129°
2026-05-07 12:16 50.04583 8.83870 29848 ft 461 kts 121°
2026-05-07 12:17 50.03109 8.88282 30117 ft 460 kts 115°
2026-05-07 12:17 50.01725 8.92761 30340 ft 460 kts 116°
2026-05-07 12:17 50.00329 8.97245 30568 ft 460 kts 116°
2026-05-07 12:17 49.98932 9.01710 30771 ft 460 kts 116°
2026-05-07 12:18 49.97531 9.06180 30982 ft 460 kts 116°
2026-05-07 12:18 49.96133 9.10636 31175 ft 460 kts 116°
2026-05-07 12:18 49.94726 9.15118 31379 ft 460 kts 116°
2026-05-07 12:18 49.93326 9.19583 31591 ft 460 kts 116°
2026-05-07 12:19 49.91940 9.23991 31802 ft 460 kts 116°
2026-05-07 12:19 49.90518 9.28502 32011 ft 460 kts 116°
2026-05-07 12:19 49.89129 9.32901 32203 ft 460 kts 116°
2026-05-07 12:19 49.87719 9.37355 32400 ft 460 kts 116°
2026-05-07 12:20 49.86307 9.41798 32591 ft 460 kts 116°
2026-05-07 12:20 49.84891 9.46243 32796 ft 460 kts 116°
2026-05-07 12:20 49.83446 9.50666 32978 ft 460 kts 120°
2026-05-07 12:21 49.79513 9.58367 33033 ft 456 kts 138°
2026-05-07 12:21 49.74875 9.65045 33031 ft 455 kts 137°
2026-05-07 12:22 49.70246 9.71743 33029 ft 456 kts 137°
2026-05-07 12:22 49.65625 9.78445 33031 ft 456 kts 137°
2026-05-07 12:23 49.60986 9.85134 33031 ft 456 kts 138°
2026-05-07 12:23 49.56337 9.91810 33039 ft 457 kts 138°
2026-05-07 12:24 49.51685 9.98470 33037 ft 457 kts 138°
2026-05-07 12:24 49.47019 10.05136 33037 ft 458 kts 138°
2026-05-07 12:25 49.42334 10.11797 33038 ft 458 kts 138°
2026-05-07 12:25 49.37649 10.18449 33044 ft 459 kts 138°
2026-05-07 12:26 49.32962 10.25099 33052 ft 459 kts 138°
2026-05-07 12:26 49.28266 10.31737 33061 ft 459 kts 139°
2026-05-07 12:27 49.23483 10.38237 33066 ft 458 kts 145°
2026-05-07 12:27 49.18088 10.43355 33068 ft 456 kts 151°
2026-05-07 12:28 49.12630 10.48306 33070 ft 456 kts 151°
2026-05-07 12:28 49.07175 10.53259 33074 ft 456 kts 151°
2026-05-07 12:29 49.01717 10.58219 33075 ft 456 kts 151°
2026-05-07 12:29 48.96290 10.63129 33087 ft 456 kts 151°
2026-05-07 12:30 48.90830 10.68046 33085 ft 456 kts 151°
2026-05-07 12:30 48.85363 10.72952 33079 ft 457 kts 151°
2026-05-07 12:31 48.80170 10.78504 33068 ft 459 kts 137°
2026-05-07 12:31 48.75852 10.85649 33056 ft 459 kts 133°
2026-05-07 12:32 48.71568 10.92843 33045 ft 459 kts 134°
2026-05-07 12:32 48.67278 10.99987 33055 ft 459 kts 134°
2026-05-07 12:33 48.60846 11.10697 33055 ft 458 kts 134°
2026-05-07 12:33 48.56552 11.17819 33054 ft 458 kts 134°
2026-05-07 12:34 48.52264 11.24922 33055 ft 458 kts 134°
2026-05-07 12:34 48.47973 11.32015 33057 ft 458 kts 135°
2026-05-07 12:35 48.46794 11.33958 33053 ft 457 kts 135°
2026-05-07 12:35 48.42495 11.41027 33041 ft 457 kts 135°
2026-05-07 12:36 48.38199 11.48084 33047 ft 457 kts 135°
2026-05-07 12:36 48.33904 11.55119 33044 ft 457 kts 135°
2026-05-07 12:37 48.29607 11.62132 33047 ft 456 kts 135°
2026-05-07 12:37 48.25271 11.69108 33045 ft 455 kts 137°
2026-05-07 12:38 48.20680 11.75625 33044 ft 454 kts 141°
2026-05-07 12:38 48.15948 11.81875 33044 ft 454 kts 142°
2026-05-07 12:39 48.11235 11.88171 33041 ft 454 kts 141°
2026-05-07 12:39 48.06577 11.94539 33036 ft 454 kts 141°
2026-05-07 12:40 48.01963 12.00867 33033 ft 453 kts 141°
2026-05-07 12:40 47.97314 12.07204 33032 ft 453 kts 141°
2026-05-07 12:41 47.92653 12.13522 33032 ft 452 kts 141°
2026-05-07 12:41 47.87991 12.19833 33030 ft 452 kts 141°
2026-05-07 12:42 47.83337 12.26116 33035 ft 452 kts 142°
2026-05-07 12:42 47.78679 12.32380 33027 ft 451 kts 142°
2026-05-07 12:43 47.74016 12.38632 33027 ft 451 kts 142°
2026-05-07 12:43 47.69366 12.44858 33032 ft 450 kts 142°
2026-05-07 12:44 47.64710 12.51069 33033 ft 450 kts 142°
2026-05-07 12:44 47.59737 12.56555 33044 ft 443 kts 152°
2026-05-07 12:45 47.54514 12.61387 33032 ft 443 kts 152°
2026-05-07 12:45 47.49286 12.66227 33024 ft 442 kts 152°
2026-05-07 12:46 47.44076 12.71044 33025 ft 442 kts 153°
2026-05-07 12:46 47.38861 12.75851 33030 ft 441 kts 153°
2026-05-07 12:47 47.33690 12.80606 33021 ft 441 kts 153°
2026-05-07 12:47 47.28482 12.85382 33015 ft 440 kts 153°
2026-05-07 12:48 47.23280 12.90135 33009 ft 439 kts 153°
2026-05-07 12:48 47.18094 12.94876 33006 ft 439 kts 153°
2026-05-07 12:49 47.13771 12.98812 33002 ft 439 kts 153°
2026-05-07 12:49 47.08578 13.03528 32995 ft 439 kts 153°
2026-05-07 12:50 47.03380 13.08252 32991 ft 439 kts 154°
2026-05-07 12:50 46.98173 13.12955 32985 ft 439 kts 154°
2026-05-07 12:51 46.92972 13.17644 32978 ft 439 kts 154°
2026-05-07 12:51 46.87768 13.22330 32969 ft 439 kts 154°
2026-05-07 12:52 46.82559 13.27007 32974 ft 440 kts 154°
2026-05-07 12:52 46.77346 13.31679 32975 ft 440 kts 154°
2026-05-07 12:53 46.72130 13.36334 32980 ft 439 kts 155°
2026-05-07 12:53 46.66927 13.40979 32980 ft 438 kts 155°
2026-05-07 12:54 46.61729 13.45614 32983 ft 437 kts 155°
2026-05-07 12:54 46.56582 13.50189 32982 ft 436 kts 155°
2026-05-07 12:55 46.51406 13.54778 32989 ft 436 kts 155°
2026-05-07 12:55 46.46234 13.59343 32990 ft 435 kts 155°
2026-05-07 12:56 46.41060 13.63906 32994 ft 435 kts 155°
2026-05-07 12:56 46.35896 13.68454 32985 ft 434 kts 155°
2026-05-07 12:57 46.30736 13.72996 32984 ft 434 kts 156°
2026-05-07 12:57 46.25575 13.77526 32979 ft 434 kts 156°
2026-05-07 12:58 46.20402 13.82044 33001 ft 434 kts 156°
2026-05-07 12:58 46.15268 13.86522 33003 ft 434 kts 156°
2026-05-07 12:59 46.10092 13.91023 33003 ft 434 kts 156°
2026-05-07 12:59 46.04923 13.95499 33002 ft 433 kts 156°
2026-05-07 13:00 45.99753 13.99978 33000 ft 434 kts 156°
2026-05-07 13:00 45.94581 14.04463 32996 ft 434 kts 156°
2026-05-07 13:01 45.89406 14.08936 32997 ft 435 kts 156°
2026-05-07 13:01 45.84219 14.13406 32995 ft 435 kts 156°
2026-05-07 13:02 45.79021 14.17873 32997 ft 436 kts 156°
2026-05-07 13:02 45.73815 14.22331 33005 ft 436 kts 156°
2026-05-07 13:03 45.68604 14.26774 33010 ft 436 kts 156°
2026-05-07 13:03 45.63391 14.31221 33022 ft 436 kts 156°
2026-05-07 13:04 45.58338 14.35527 33026 ft 436 kts 156°
2026-05-07 13:04 45.53075 14.39998 33006 ft 436 kts 157°
2026-05-07 13:05 45.47865 14.44415 33026 ft 436 kts 157°
2026-05-07 13:05 45.42686 14.48801 33032 ft 436 kts 157°
2026-05-07 13:06 45.37474 14.53200 33032 ft 436 kts 157°
2026-05-07 13:06 45.32258 14.57597 33030 ft 436 kts 157°
2026-05-07 13:07 45.27047 14.61982 33034 ft 436 kts 157°
2026-05-07 13:07 45.21826 14.66365 33033 ft 435 kts 157°
2026-05-07 13:08 45.16609 14.70722 33033 ft 435 kts 157°
2026-05-07 13:08 45.11386 14.75077 33028 ft 436 kts 157°
2026-05-07 13:09 45.06162 14.79432 33025 ft 436 kts 157°
2026-05-07 13:09 45.00924 14.83786 33022 ft 437 kts 157°
2026-05-07 13:10 44.95682 14.88141 33020 ft 438 kts 157°
2026-05-07 13:10 44.90459 14.92464 33019 ft 438 kts 157°
2026-05-07 13:11 44.85194 14.96814 33019 ft 439 kts 157°
2026-05-07 13:11 44.79919 15.01168 33017 ft 439 kts 157°
2026-05-07 13:12 44.74641 15.05511 33011 ft 440 kts 157°
2026-05-07 13:12 44.69356 15.09846 33013 ft 440 kts 157°
2026-05-07 13:13 44.64067 15.14172 33018 ft 440 kts 157°
2026-05-07 13:13 44.58769 15.18507 33018 ft 441 kts 157°
2026-05-07 13:14 44.53468 15.22838 33021 ft 441 kts 157°
2026-05-07 13:14 44.48151 15.27162 33024 ft 441 kts 157°
2026-05-07 13:15 44.42872 15.31447 33015 ft 443 kts 156°
2026-05-07 13:15 44.37550 15.35758 33016 ft 445 kts 156°
2026-05-07 13:16 44.32169 15.40115 33019 ft 446 kts 156°
2026-05-07 13:16 44.26791 15.44458 33031 ft 447 kts 156°
2026-05-07 13:17 44.21407 15.48790 33046 ft 447 kts 156°
2026-05-07 13:17 44.16021 15.53122 33051 ft 448 kts 156°
2026-05-07 13:18 44.10616 15.57448 33046 ft 448 kts 156°
2026-05-07 13:18 44.05210 15.61771 33049 ft 449 kts 156°
2026-05-07 13:19 43.99793 15.66100 33050 ft 449 kts 156°
2026-05-07 13:19 43.94367 15.70426 33043 ft 450 kts 156°
2026-05-07 13:20 43.88927 15.74747 33037 ft 451 kts 156°
2026-05-07 13:20 43.83482 15.79064 33032 ft 451 kts 156°
2026-05-07 13:21 43.78022 15.83388 33028 ft 453 kts 156°
2026-05-07 13:21 43.72549 15.87716 33024 ft 454 kts 156°
2026-05-07 13:22 43.67058 15.92047 33039 ft 454 kts 156°
2026-05-07 13:22 43.61554 15.96369 33052 ft 455 kts 156°
2026-05-07 13:23 43.56046 16.00687 33066 ft 456 kts 157°
2026-05-07 13:23 43.50523 16.05025 33071 ft 456 kts 157°
2026-05-07 13:24 43.45038 16.09318 33071 ft 457 kts 157°
2026-05-07 13:24 43.39501 16.13634 33070 ft 457 kts 157°
2026-05-07 13:25 43.33962 16.17954 33068 ft 458 kts 157°
2026-05-07 13:25 43.28409 16.22264 33066 ft 458 kts 157°
2026-05-07 13:26 43.22852 16.26572 33061 ft 459 kts 157°
2026-05-07 13:26 43.17288 16.30869 33062 ft 459 kts 158°
2026-05-07 13:27 43.11752 16.35136 33065 ft 460 kts 158°
2026-05-07 13:27 43.06176 16.39434 33060 ft 460 kts 158°
2026-05-07 13:28 43.00588 16.43736 33067 ft 461 kts 158°
2026-05-07 13:28 42.94994 16.48020 33066 ft 461 kts 158°
2026-05-07 13:29 42.89386 16.52314 33060 ft 462 kts 158°
2026-05-07 13:29 42.83772 16.56597 33054 ft 463 kts 158°
2026-05-07 13:30 42.78144 16.60878 33053 ft 464 kts 157°
2026-05-07 13:30 42.72506 16.65172 33055 ft 465 kts 157°
2026-05-07 13:31 42.66890 16.69442 33057 ft 466 kts 157°
2026-05-07 13:31 42.61232 16.73734 33052 ft 466 kts 157°
2026-05-07 13:32 42.55550 16.78024 33057 ft 467 kts 157°
2026-05-07 13:32 42.49863 16.82306 33050 ft 468 kts 157°
2026-05-07 13:33 42.44166 16.86588 33043 ft 469 kts 157°
2026-05-07 13:33 42.38458 16.90870 33055 ft 469 kts 157°
2026-05-07 13:34 42.29896 16.97294 33049 ft 470 kts 157°
2026-05-07 13:35 42.24172 17.01575 33044 ft 470 kts 157°
2026-05-07 13:35 42.18447 17.05840 33050 ft 471 kts 157°
2026-05-07 13:36 42.12742 17.10089 33050 ft 471 kts 157°
2026-05-07 13:36 42.07000 17.14352 33049 ft 471 kts 157°
2026-05-07 13:37 42.01254 17.18604 33052 ft 472 kts 157°
2026-05-07 13:37 41.95497 17.22854 33054 ft 472 kts 157°
2026-05-07 13:38 41.89639 17.26709 33056 ft 467 kts 163°
2026-05-07 13:38 41.83684 17.30201 33058 ft 467 kts 163°
2026-05-07 13:39 41.77726 17.33675 33059 ft 467 kts 163°
2026-05-07 13:39 41.71760 17.37130 33050 ft 467 kts 163°
2026-05-07 13:40 41.65791 17.40594 33064 ft 468 kts 163°
2026-05-07 13:40 41.59819 17.44057 33056 ft 468 kts 163°
2026-05-07 13:41 41.53877 17.47493 33055 ft 468 kts 163°
2026-05-07 13:41 41.47895 17.50951 33050 ft 469 kts 163°
2026-05-07 13:42 41.41902 17.54406 33054 ft 469 kts 164°
2026-05-07 13:42 41.35909 17.57851 33052 ft 470 kts 164°
2026-05-07 13:43 41.29904 17.61307 33048 ft 470 kts 164°
2026-05-07 13:43 41.24914 17.64164 33048 ft 470 kts 164°
2026-05-07 13:44 41.18898 17.67592 33052 ft 470 kts 164°
2026-05-07 13:44 41.12879 17.71024 33054 ft 471 kts 164°
2026-05-07 13:45 41.06854 17.74457 33054 ft 471 kts 164°
2026-05-07 13:45 41.00819 17.77882 33055 ft 472 kts 164°
2026-05-07 13:46 40.94783 17.81298 33049 ft 472 kts 165°
2026-05-07 13:46 40.88738 17.84716 33050 ft 473 kts 165°
2026-05-07 13:47 40.82679 17.88144 33046 ft 474 kts 165°
2026-05-07 13:47 40.76614 17.91564 33043 ft 475 kts 165°
2026-05-07 13:48 40.70571 17.94955 33042 ft 475 kts 165°
2026-05-07 13:48 40.64477 17.98364 33039 ft 476 kts 165°
2026-05-07 13:49 40.58383 18.01895 33036 ft 481 kts 162°
2026-05-07 13:49 40.52411 18.05957 33036 ft 486 kts 160°
2026-05-07 13:50 40.46470 18.10222 33036 ft 487 kts 160°
2026-05-07 13:50 40.40489 18.14395 33033 ft 487 kts 161°
2026-05-07 13:51 40.34452 18.18468 33033 ft 488 kts 161°
2026-05-07 13:51 40.28382 18.22536 33030 ft 490 kts 161°
2026-05-07 13:52 40.22322 18.26632 33030 ft 491 kts 161°
2026-05-07 13:52 40.16401 18.31220 33032 ft 506 kts 148°
2026-05-07 13:53 40.10927 18.37048 33036 ft 508 kts 148°
2026-05-07 13:53 40.05462 18.42940 33039 ft 510 kts 147°
2026-05-07 13:54 39.99977 18.48838 33048 ft 512 kts 148°
2026-05-07 13:54 39.94463 18.54716 33048 ft 513 kts 148°
2026-05-07 13:55 39.88966 18.60547 33051 ft 514 kts 148°
2026-05-07 13:55 39.83411 18.66430 33059 ft 515 kts 148°
2026-05-07 13:56 39.77847 18.72323 33060 ft 517 kts 148°
2026-05-07 13:56 39.72259 18.78214 33050 ft 518 kts 148°
2026-05-07 13:57 39.66664 18.84109 33052 ft 519 kts 148°
2026-05-07 13:57 39.61051 18.90017 33053 ft 520 kts 148°
2026-05-07 13:58 39.55419 18.95910 33054 ft 520 kts 148°
2026-05-07 13:58 39.49783 19.01806 33062 ft 521 kts 148°
2026-05-07 13:59 39.44132 19.07716 33062 ft 522 kts 148°
2026-05-07 13:59 39.38520 19.13580 33064 ft 523 kts 148°
2026-05-07 14:00 39.32849 19.19486 33066 ft 524 kts 148°
2026-05-07 14:00 39.27174 19.25368 33069 ft 524 kts 148°
2026-05-07 14:01 39.21479 19.31259 33073 ft 525 kts 148°
2026-05-07 14:01 39.15784 19.37150 33082 ft 525 kts 148°
2026-05-07 14:02 39.10084 19.43030 32780 ft 523 kts 148°
2026-05-07 14:02 39.07245 19.45961 32112 ft 521 kts 148°
2026-05-07 14:02 39.04429 19.48863 31487 ft 518 kts 147°
2026-05-07 14:02 39.01626 19.51742 30896 ft 514 kts 147°
2026-05-07 14:03 38.98836 19.54595 30276 ft 510 kts 147°
2026-05-07 14:03 38.96067 19.57424 29561 ft 507 kts 146°
2026-05-07 14:03 38.93308 19.60247 28730 ft 506 kts 146°
2026-05-07 14:03 38.90567 19.63058 28067 ft 502 kts 146°
2026-05-07 14:04 38.87854 19.65839 27477 ft 496 kts 146°
2026-05-07 14:04 38.85172 19.68583 26909 ft 491 kts 146°
2026-05-07 14:04 38.82510 19.71308 26329 ft 486 kts 146°
2026-05-07 14:04 38.79918 19.73952 25769 ft 481 kts 146°
2026-05-07 14:05 38.77296 19.76612 25229 ft 483 kts 146°
2026-05-07 14:05 38.74617 19.79314 25043 ft 492 kts 146°
2026-05-07 14:05 38.71922 19.82038 25086 ft 496 kts 146°
2026-05-07 14:05 38.69212 19.84784 25083 ft 497 kts 145°
2026-05-07 14:06 38.66505 19.87534 25083 ft 497 kts 145°
2026-05-07 14:06 38.63800 19.90288 25085 ft 497 kts 145°
2026-05-07 14:06 38.61092 19.93043 25080 ft 498 kts 145°
2026-05-07 14:06 38.58378 19.95796 25080 ft 498 kts 145°
2026-05-07 14:07 38.55666 19.98538 25083 ft 498 kts 146°
2026-05-07 14:07 38.52942 20.01279 25080 ft 498 kts 146°
2026-05-07 14:07 38.50179 20.03929 25075 ft 495 kts 152°
2026-05-07 14:07 38.47140 20.05910 25083 ft 487 kts 164°
2026-05-07 14:08 38.43914 20.07095 25079 ft 479 kts 175°
2026-05-07 14:08 38.40634 20.07489 25081 ft 470 kts 186°
2026-05-07 14:08 38.37409 20.07105 25080 ft 462 kts 197°
2026-05-07 14:08 38.34352 20.05993 25081 ft 453 kts 207°
2026-05-07 14:09 38.31543 20.04256 25000 ft 445 kts 214°
2026-05-07 14:09 38.28799 20.02472 24396 ft 443 kts 210°
2026-05-07 14:09 38.25999 20.00975 23750 ft 442 kts 205°
2026-05-07 14:09 38.23079 19.99752 23028 ft 441 kts 200°
2026-05-07 14:10 38.20110 19.98817 22337 ft 439 kts 196°
2026-05-07 14:10 38.17145 19.98176 22104 ft 422 kts 192°
2026-05-07 14:10 38.14315 19.97803 21757 ft 398 kts 189°
2026-05-07 14:10 38.11577 19.97661 21457 ft 390 kts 186°
2026-05-07 14:11 38.08879 19.97735 21050 ft 386 kts 182°
2026-05-07 14:11 38.06205 19.98041 20594 ft 385 kts 178°
2026-05-07 14:11 38.03567 19.98579 20126 ft 383 kts 174°
2026-05-07 14:11 38.00970 19.99338 19655 ft 382 kts 170°
2026-05-07 14:12 37.98428 20.00296 19192 ft 380 kts 167°
2026-05-07 14:12 37.95933 20.01352 18735 ft 377 kts 165°
2026-05-07 14:12 37.93497 20.02565 18271 ft 376 kts 161°
2026-05-07 14:12 37.91153 20.04015 17764 ft 375 kts 156°
2026-05-07 14:13 37.88915 20.05693 17271 ft 373 kts 152°
2026-05-07 14:13 37.86782 20.07546 16789 ft 371 kts 148°
2026-05-07 14:13 37.84749 20.09546 16315 ft 369 kts 145°
2026-05-07 14:13 37.83424 20.10986 15990 ft 367 kts 143°
2026-05-07 14:14 37.81587 20.13197 15646 ft 358 kts 139°
2026-05-07 14:14 37.79942 20.15430 15446 ft 339 kts 136°
2026-05-07 14:14 37.78446 20.17684 15221 ft 332 kts 133°
2026-05-07 14:14 37.77063 20.20010 14882 ft 330 kts 130°
2026-05-07 14:15 37.75792 20.22420 14513 ft 329 kts 127°
2026-05-07 14:15 37.74771 20.25007 14145 ft 332 kts 112°
2026-05-07 14:15 37.74367 20.27838 13772 ft 335 kts 94°
2026-05-07 14:15 37.74375 20.30783 13300 ft 332 kts 92°
2026-05-07 14:16 37.74401 20.33676 12541 ft 328 kts 92°
2026-05-07 14:16 37.74428 20.36535 11822 ft 323 kts 92°
2026-05-07 14:16 37.74452 20.39346 11137 ft 317 kts 93°
2026-05-07 14:16 37.74473 20.42102 10474 ft 312 kts 93°
2026-05-07 14:17 37.74491 20.44822 9799 ft 307 kts 93°
2026-05-07 14:17 37.74507 20.47490 9111 ft 301 kts 94°
2026-05-07 14:17 37.74524 20.50110 8431 ft 295 kts 94°
2026-05-07 14:17 37.74537 20.52703 8061 ft 293 kts 94°
2026-05-07 14:18 37.74548 20.55260 7740 ft 290 kts 94°
2026-05-07 14:18 37.74552 20.57787 7407 ft 286 kts 94°
2026-05-07 14:18 37.74553 20.60292 7080 ft 283 kts 94°
2026-05-07 14:18 37.74556 20.62767 6747 ft 280 kts 94°
2026-05-07 14:19 37.74557 20.65214 6409 ft 278 kts 94°
2026-05-07 14:19 37.74558 20.67642 6058 ft 275 kts 94°
2026-05-07 14:19 37.74559 20.70016 5907 ft 266 kts 94°
2026-05-07 14:19 37.74561 20.72329 5653 ft 262 kts 94°
2026-05-07 14:20 37.74563 20.74624 5350 ft 260 kts 93°
2026-05-07 14:20 37.74563 20.76903 5042 ft 258 kts 93°
2026-05-07 14:20 37.74565 20.79165 4762 ft 258 kts 93°
2026-05-07 14:20 37.74717 20.81417 4463 ft 259 kts 79°
2026-05-07 14:21 37.75372 20.83543 4142 ft 261 kts 63°
2026-05-07 14:21 37.76490 20.85358 3838 ft 264 kts 46°
2026-05-07 14:21 37.77964 20.86732 3524 ft 265 kts 31°
2026-05-07 14:21 37.79677 20.87604 3206 ft 266 kts 15°
2026-05-07 14:22 37.81515 20.87909 2925 ft 268 kts
2026-05-07 14:22 37.83358 20.87744 2757 ft 266 kts 355°
2026-05-07 14:22 37.85206 20.87538 2701 ft 267 kts 355°
2026-05-07 14:22 37.87065 20.87335 2705 ft 268 kts 355°
2026-05-07 14:23 37.88920 20.87133 2710 ft 268 kts 355°
2026-05-07 14:23 37.90765 20.86931 2700 ft 260 kts 356°
2026-05-07 14:23 37.92485 20.86736 2723 ft 247 kts 353°
2026-05-07 14:23 37.93999 20.85967 2692 ft 226 kts 314°
2026-05-07 14:24 37.94674 20.84326 2706 ft 206 kts 271°
2026-05-07 14:24 37.94387 20.82639 2709 ft 192 kts 234°
2026-05-07 14:24 37.93441 20.81554 2706 ft 181 kts 201°
2026-05-07 14:24 37.92236 20.81314 2705 ft 176 kts 171°
2026-05-07 14:25 37.91071 20.81763 2703 ft 174 kts 161°
2026-05-07 14:25 37.89948 20.82247 2649 ft 164 kts 161°
2026-05-07 14:25 37.88895 20.82690 2457 ft 157 kts 161°
2026-05-07 14:25 37.87887 20.83111 2269 ft 149 kts 162°
2026-05-07 14:26 37.86920 20.83516 2095 ft 146 kts 162°
2026-05-07 14:26 37.85961 20.83919 1916 ft 145 kts 161°
2026-05-07 14:26 37.85010 20.84323 1749 ft 143 kts 161°
2026-05-07 14:26 37.84072 20.84753 1613 ft 143 kts 159°
2026-05-07 14:27 37.83158 20.85251 1432 ft 143 kts 156°
2026-05-07 14:27 37.82229 20.85697 1227 ft 142 kts 163°
2026-05-07 14:27 37.81282 20.86074 1111 ft 144 kts 163°
2026-05-07 14:27 37.80331 20.86458 873 ft 142 kts 162°
2026-05-07 14:28 37.79381 20.86835 735 ft 144 kts 162°
2026-05-07 14:28 37.78420 20.87195 549 ft 144 kts 163°
2026-05-07 14:28 37.77469 20.87553 360 ft 144 kts 163°
2026-05-07 14:28 37.76493 20.87903 181 ft 143 kts 164°
2026-05-07 14:29 37.75566 20.88252 29 ft 135 kts 164°
2026-05-07 14:29 37.74830 20.88532 21 ft 72 kts 164°
2026-05-07 14:29 37.74530 20.88638 21 ft 27 kts 164°
2026-05-07 14:29 37.74393 20.88711 20 ft 15 kts 126°
2026-05-07 14:30 37.74353 20.88711 20 ft 3 kts 283°
2026-05-07 14:30 37.74374 20.88694 20 ft 5 kts 335°
2026-05-07 14:30 37.74421 20.88672 20 ft 9 kts 343°
2026-05-07 14:30 37.74496 20.88646 21 ft 15 kts 345°
2026-05-07 14:31 37.74621 20.88604 21 ft 22 kts 344°
2026-05-07 14:31 37.74772 20.88546 21 ft 23 kts 342°
2026-05-07 14:31 37.74929 20.88483 18 ft 25 kts 342°
2026-05-07 14:31 37.75069 20.88502 20 ft 18 kts 25°
2026-05-07 14:32 37.75162 20.88523 22 ft 11 kts 346°
2026-05-07 14:32 37.75241 20.88492 20 ft 12 kts 342°
2026-05-07 14:32 37.75316 20.88497 20 ft 11 kts 63°
2026-05-07 14:32 37.75330 20.88550 22 ft 0 kts 76°